KALMAR current weather conditions

sailwx.info

Wind from 260 at 6 knots

Air temperature 2.0° C
Visibility: greater than 1.0 NM
Dewpoint 2.0° C

Last reported at 2017-Nov-25 04:50 UTC.
Time now 2017-Nov-25 06:09 UTC

Location: N 56°44' E 016°18'.
View on Google Maps.

See reports from other nearby stations

  
Tides and Currents Weather Stations Pressure Air Temp Water Temp Dewpoint Dewpoint Depression Visibility Wind Speed Wind Dir Waves Ship Positions
date/time (UTC)wind fromknots sea level pressurealtimeterstation pressurevisibilityair tempwater tempwave heightnotes
2017-Nov-25 04:50 260 6 1.0 2.0
2017-Nov-25 04:20 230 2 0.1 1.0 Fog.
2017-Nov-25 03:50 250 2 0.1 1.0 Fog.
2017-Nov-25 03:20 250 5 0.1 2.0 Fog.
2017-Nov-25 02:50 230 2 0.1 2.0 Mist.
2017-Nov-25 02:20 230 5 2.2 2.0
2017-Nov-25 01:50 240 4 0.1 2.0
2017-Nov-25 01:20 210 4 0.5 2.0 Mist.
2017-Nov-25 00:50 210 4 1.2 2.0
2017-Nov-25 00:20 210 4 3.8 3.0
2017-Nov-24 23:50 210 5 4.9 2.0 Patches of fog.
2017-Nov-24 23:20 0.5 2.0
2017-Nov-24 22:50 220 2 5.4 3.0 Patches of fog.
2017-Nov-24 22:20 210 1 5.4 3.0
2017-Nov-24 21:50 230 1 5.4 4.0
2017-Nov-24 21:20 310 1 5.4 4.0 Light rain.
2017-Nov-24 20:50 280 6 5.4 5.0 Light rain.
2017-Nov-24 20:20 260 5 5.4 5.0 Light drizzle.
2017-Nov-24 19:50 240 4 5.4 5.0
2017-Nov-24 19:20 220 4 5.4 5.0
2017-Nov-24 18:50 210 4 5.4 5.0
2017-Nov-24 18:20 190 4 5.4 5.0
2017-Nov-24 17:50 200 5 5.4 5.0 Light drizzle.
2017-Nov-24 17:20 200 4 3.8 5.0 Light rain.
2017-Nov-24 16:50 230 2 5.4 5.0 Light rain.
2017-Nov-24 16:20 230 2 5.4 5.0 Light rain.
2017-Nov-24 15:50 190 4 5.4 5.0 Light rain.
2017-Nov-24 15:20 190 2 5.4 5.0 Light drizzle.
2017-Nov-24 14:50 180 4 5.4 6.0 Light drizzle.
2017-Nov-24 14:20 170 6 5.4 6.0 Drizzle.
2017-Nov-24 13:50 160 6 5.4 6.0 Light rain.
2017-Nov-24 13:20 170 5 5.4 6.0 Light rain.
2017-Nov-24 12:50 180 5 5.4 7.0 Light drizzle.
2017-Nov-24 12:20 180 6 4.3 7.0 Light rain.
2017-Nov-24 11:50 170 5 5.4 7.0 Light rain.
2017-Nov-24 11:20 190 4 5.4 7.0 Light rain.
2017-Nov-24 10:50 180 6 5.4 7.0
2017-Nov-24 10:20 180 7 5.4 7.0
2017-Nov-24 09:50 180 6 5.4 7.0
2017-Nov-24 09:20 190 6 5.4 7.0
2017-Nov-24 08:50 190 6 5.4 6.0
2017-Nov-24 08:20 190 6 5.4 5.0
2017-Nov-24 07:50 190 6 5.4 5.0
2017-Nov-24 07:20 190 6 5.4 5.0
2017-Nov-24 06:50 180 6 5.4 3.0
2017-Nov-24 06:20 190 6 5.4 5.0
2017-Nov-24 05:50 200 6 5.4 5.0
2017-Nov-24 05:20 200 6 5.4 5.0
2017-Nov-24 04:50 210 8 5.4 6.0
2017-Nov-24 04:20 200 8 5.4 6.0
2017-Nov-24 03:50 190 8 5.4 6.0
2017-Nov-24 03:20 180 8 5.4 6.0
2017-Nov-24 02:50 190 8 5.4 6.0
2017-Nov-24 02:20 180 6 5.4 6.0
2017-Nov-24 01:50 180 6 5.4 5.0
2017-Nov-24 01:20 200 5 5.4 7.0
2017-Nov-24 00:50 240 7 5.4 8.0
2017-Nov-24 00:20 260 12 5.4 8.0
2017-Nov-23 23:50 250 12 5.4 9.0
2017-Nov-23 23:20 220 6 5.410.0
2017-Nov-23 22:50 210 7 5.4 9.0
2017-Nov-23 22:20 210 6 5.4 9.0
2017-Nov-23 21:50 210 9 5.4 9.0
2017-Nov-23 21:20 220 8 5.4 9.0
2017-Nov-23 20:50 210 9 5.4 9.0
2017-Nov-23 20:20 210 8 5.4 8.0
2017-Nov-23 19:50 210 8 5.4 8.0
2017-Nov-23 19:20 200 11 5.4 9.0
2017-Nov-23 18:50 200 11 5.4 9.0 Rain.
2017-Nov-23 18:20 190 9 5.4 9.0 Light drizzle.
2017-Nov-23 17:50 190 8 5.4 9.0
2017-Nov-23 17:20 180 7 5.4 8.0
2017-Nov-23 16:50 180 7 5.4 7.0
2017-Nov-23 16:20 180 13 5.4 7.0
2017-Nov-23 15:50 190 13 5.4 7.0
2017-Nov-23 15:20 180 13 5.4 7.0
2017-Nov-23 14:50 190 13 5.4 8.0
2017-Nov-23 14:20 180 14 5.4 8.0
2017-Nov-23 13:50 170 13 5.4 7.0
2017-Nov-23 13:20 190 13 5.4 8.0
2017-Nov-23 12:50 190 12 5.4 8.0
2017-Nov-23 12:20 180 13 5.4 8.0
2017-Nov-23 11:50 190 13 5.4 8.0
2017-Nov-23 11:20 190 13 5.4 8.0
2017-Nov-23 10:50 190 13 5.4 8.0
2017-Nov-23 10:20 190 13 5.4 8.0
2017-Nov-23 09:50 180 13 5.4 7.0
2017-Nov-23 09:20 180 12 5.4 7.0
2017-Nov-23 08:50 190 11 5.4 7.0
2017-Nov-23 08:20 190 12 4.9 7.0 Mist.
2017-Nov-23 07:50 190 13 4.3 7.0 Mist.
2017-Nov-23 07:20 190 8 5.4 7.0
2017-Nov-23 06:50 190 11 4.9 6.0 Mist.
2017-Nov-23 06:20 190 11 3.2 7.0 Mist.